Hourly Data Report for July 04, 2022

TOBERMORY RCS
ONTARIO
Current Station Operator: ECCC - MSC

45°14'00.000" N
81°38'00.000" W
213.50 m
6128330
71767
TTR

Download Data

Hourly Data (July 2022)
Hourly Data Report for July 4, 2022
TIME
LST
Temp Definition
°C
Dew Point Definition
°C
Rel Hum Definition
%
Precip. Amount Definition
mm

Wind Dir Definition
10's deg

Wind Spd Definition
km/h
Visibility Definition
km
Stn Press Definition
kPa
Hmdx Definition


Wind Chill Definition


Weather Definition


00:00 11.3 8.7 84 0.0 24 5   99.59     LegendNANA
01:00 10.9 9.0 88 0.0 25 3   99.57     LegendNANA
02:00 11.6 9.6 87 0.0 22 3   99.54     LegendNANA
03:00 11.7 10.1 90 0.0 20 2   99.52     LegendNANA
04:00 11.7 10.2 90 0.0 23 5   99.56     LegendNANA
05:00 12.3 10.2 87 0.0 13 1   99.56     LegendNANA
06:00 12.8 11.2 90 0.0   0   99.64     LegendNANA
07:00 14.6 12.3 86 0.0 0 1   99.62     LegendNANA
08:00 15.1 13.0 88 0.0 5 1   99.59     LegendNANA
09:00 16.1 12.9 81 0.0 8 1   99.60     LegendNANA
10:00 17.4 11.2 67 0.0 19 4   99.57     LegendNANA
11:00 18.6 10.7 60 0.0 15 2   99.56     LegendNANA
12:00 19.5 11.8 61 0.0 21 4   99.58     LegendNANA
13:00 19.1 10.5 57 0.0 19 3   99.53     LegendNANA
14:00 20.4 11.9 58 0.0 13 6   99.46     LegendNANA
15:00 18.1 11.8 66 0.0 4 4   99.45     LegendNANA
16:00 20.0 13.8 67 0.0 9 3   99.37     LegendNANA
17:00 18.4 11.1 63 0.0 10 5   99.31     LegendNANA
18:00 18.3 10.0 59 0.0 15 9   99.25     LegendNANA
19:00 17.8 11.1 65 0.0 9 4   99.21     LegendNANA
20:00 17.0 11.5 70 0.0 7 4   99.19     LegendNANA
21:00 15.0 12.4 85 1.1 3 6   99.24     LegendNANA
22:00 15.7 13.9 89 0.6 9 8   99.15     LegendNANA
23:00 16.5 15.0 91 1.3 9 11   99.13     LegendNANA

Notes on Data Quality.

Legend

  • E = Estimated
  • M = Missing
  • NA = Not Available*
  • [empty] = Indicates an unobserved value
Date modified: